Wind_Speed
20 19 18 16 13 10 8 6 5 5 5 6 7 9 11 13 14 15 16 18 18 19
17 15 15 14 12 9 6 4 2 4 6 8 10 10 11 11 14 15 17 19 20 20
14 12 11 10 9 6 4 3 2 5 7 7 9 10 12 15 17 20 22 23 24 25
11 8 6 5 3 2 1 0 3 4 9 10 13 14 15 17 20 21 23 24 26 28
8 6 5 2 1 1 2 3 5 6 10 13 15 16 17 18 19 21 23 24 26 28
5 5 4 3 3 3 4 4 5 9 14 15 16 16 16 17 16 18 21 24 25 27
10 5 1 2 2 2 1 4 9 13 14 15 15 15 16 17 19 22 25 27 28 32
12 12 10 8 5 3 6 10 12 14 14 15 14 16 18 20 23 26 28 29 32 34
7 7 7 6 7 9 10 10 12 13 14 15 15 17 16 19 24 27 30 32 32 33
10 10 10 10 9 9 10 11 12 12 14 16 18 16 17 25 25 26 28 30 30 33
11 10 10 8 7 10 12 12 13 14 14 18 17 16 24 24 24 28 29 29 30 31
9 10 10 10 11 12 13 14 14 14 15 16 17 22 22 24 25 28 29 29 31 29
7 8 8 11 11 12 11 9 11 13 14 16 20 22 22 23 25 26 28 33 30 30
8 8 8 9 10 12 11 12 12 12 15 18 20 21 20 23 23 23 27 27 30 30
Wind_Direction
117 116 116 119 118 111 99 74 39 8 354 338 326 319 315 317 318 313 307 305 304 303
110 112 111 110 111 115 111 98 59 3 342 331 322 317 319 321 321 318 311 306 306 303
101 100 102 108 113 115 119 109 30 357 350 337 333 325 319 316 318 316 312 307 305 303
107 98 86 88 79 67 88 184 325 324 336 332 333 327 320 317 312 311 310 308 305 305
129 138 143 135 145 256 243 268 301 307 318 323 326 318 315 313 311 309 308 305 304 299
137 183 197 210 219 223 238 279 298 317 321 326 324 319 316 313 311 308 303 303 303 303
69 78 133 155 140 121 77 317 319 322 322 322 321 318 321 324 324 319 312 307 305 302
75 75 83 83 72 14 334 326 328 325 323 320 319 331 331 329 325 316 311 306 299 294
45 32 22 5 349 338 333 329 324 326 330 327 339 345 342 330 320 313 306 299 298 295
1 352 342 334 328 328 331 327 326 331 343 345 345 344 337 328 319 313 308 305 300 297
360 354 344 336 337 332 330 327 329 331 339 343 346 343 333 327 321 316 319 316 306 296
4 354 352 348 337 330 328 330 340 345 344 345 341 339 338 337 330 323 322 322 314 312
357 341 344 346 342 343 357 355 353 345 345 342 340 350 349 346 337 319 323 324 333 334
0 2 1 359 355 351 358 347 350 352 349 350 352 353 345 350 343 331 317 313 317 325
Height
761 765 769 771 772 775 776 778 780 782 781 782 781 780 779 776 775 774 773 773 772 770
767 769 771 772 775 777 780 781 784 783 782 781 780 779 776 774 773 771 770 768 767 765
771 773 774 775 776 778 781 782 782 782 781 780 778 776 774 771 768 765 764 763 762 760
772 774 775 776 776 778 780 781 781 781 780 778 774 772 770 767 765 762 760 759 758 755
775 776 776 777 777 778 779 780 780 779 777 774 772 771 768 765 763 760 758 756 753 750
775 776 777 777 778 778 779 778 778 777 774 771 769 768 766 763 760 758 755 751 747 744
774 774 774 775 776 777 777 776 776 774 771 770 768 765 764 760 756 753 749 746 743 738
774 774 774 775 775 775 775 774 772 771 770 768 766 762 761 757 753 749 745 740 735 731
774 774 774 774 774 773 772 771 771 770 768 765 763 761 758 754 750 745 740 734 729 725
774 773 773 774 773 772 771 771 769 768 766 764 761 758 755 751 745 740 735 730 724 718
774 774 774 773 772 771 770 769 768 766 764 762 759 756 752 747 741 735 730 724 719 715
774 774 773 772 771 770 769 767 766 765 762 759 757 754 748 742 737 730 725 720 715 710
774 774 773 773 772 770 768 766 764 762 761 759 755 750 746 741 736 729 722 716 709 702
774 773 774 772 771 769 766 765 763 762 760 757 753 748 746 740 735 729 723 715 706 699